| time (UTC) | temp F | wind direction | speed MPH | gust MPH | rain 1hr in | rain 24hr in | rain mn in | humidity % | barometer mb |
| 20260504185016 | 74 | 68 | 1.0 | 3.0 | 0.00 | 0.00 | 0.00 | 32 | 1009.8 |
| 20260504184016 | 73 | 90 | 2.0 | 6.0 | 0.00 | 0.00 | 0.00 | 33 | 1009.9 |
| 20260504183016 | 72 | 90 | 2.0 | 6.0 | 0.00 | 0.00 | 0.00 | 33 | 1009.8 |
| 20260504182016 | 73 | 113 | 2.0 | 6.0 | 0.00 | 0.00 | 0.00 | 33 | 1009.8 |
| 20260504181016 | 72 | 90 | 1.0 | 4.0 | 0.00 | 0.00 | 0.00 | 35 | 1010.0 |
| 20260504180016 | 72 | 135 | 1.0 | 5.0 | 0.00 | 0.00 | 0.00 | 38 | 1010.0 |
| 20260504175016 | 72 | 135 | 1.0 | 4.0 | 0.00 | 0.00 | 0.00 | 35 | 1010.1 |
| 20260504174016 | 71 | 90 | 1.0 | 3.0 | 0.00 | 0.00 | 0.00 | 40 | 1010.1 |
| 20260504173036 | 71 | 113 | 1.0 | 3.0 | 0.00 | 0.00 | 0.00 | 37 | 1009.8 |
| 20260504172016 | 70 | 225 | 1.0 | 5.0 | 0.00 | 0.00 | 0.00 | 37 | 1009.9 |
| 20260504171016 | 70 | 135 | 1.0 | 2.0 | 0.00 | 0.00 | 0.00 | 39 | 1010.0 |
| 20260504151018 | 49 | 0.0 | 1.0 | 0.00 | 0.00 | 0.00 | 85 | 1010.2 | |
| 20260504141017 | 39 | 0.0 | 0.0 | 0.00 | 0.00 | 0.00 | 93 | 1010.4 | |
| 20260504081057 | 42 | 0.0 | 0.0 | 0.00 | 0.00 | 0.00 | 87 | 1008.8 | |
| 20260504050017 | 51 | 0.0 | 0.0 | 0.00 | 0.00 | 0.00 | 76 | 1008.4 | |
| 20260504045017 | 52 | 0.0 | 0.0 | 0.00 | 0.00 | 0.00 | 75 | 1008.4 | |
| 20260504044037 | 52 | 0.0 | 0.0 | 0.00 | 0.00 | 0.00 | 74 | 1008.1 | |
| 20260504043017 | 53 | 0.0 | 0.0 | 0.00 | 0.00 | 0.00 | 71 | 1008.3 | |
| 20260504042017 | 54 | 0.0 | 0.0 | 0.00 | 0.00 | 0.00 | 71 | 1008.3 | |
| 20260504041017 | 55 | 0.0 | 0.0 | 0.00 | 0.00 | 0.00 | 70 | 1008.3 | |
| 20260504040017 | 56 | 0.0 | 0.0 | 0.00 | 0.00 | 0.00 | 70 | 1008.1 | |
| 20260504035037 | 57 | 0.0 | 0.0 | 0.00 | 0.00 | 0.00 | 68 | 1008.0 | |
| 20260504034017 | 58 | 0.0 | 0.0 | 0.00 | 0.00 | 0.00 | 63 | 1007.5 | |
| 20260504033017 | 59 | 0.0 | 0.0 | 0.00 | 0.00 | 0.00 | 61 | 1007.7 | |
| 20260504032017 | 61 | 0.0 | 0.0 | 0.00 | 0.00 | 0.00 | 60 | 1007.9 | |
| 20260504031017 | 62 | 0.0 | 0.0 | 0.00 | 0.00 | 0.00 | 59 | 1007.3 | |
| 20260504030017 | 64 | 0.0 | 0.0 | 0.00 | 0.00 | 0.00 | 54 | 1007.5 | |
| 20260504025017 | 66 | 0.0 | 0.0 | 0.00 | 0.00 | 0.00 | 50 | 1007.5 | |
| 20260504024017 | 69 | 0.0 | 0.0 | 0.00 | 0.00 | 0.00 | 48 | 1007.1 | |
| 20260504023017 | 72 | 0.0 | 0.0 | 0.00 | 0.00 | 0.00 | 44 | 1007.4 | |
| 20260504022017 | 75 | 0.0 | 0.0 | 0.00 | 0.00 | 0.00 | 37 | 1007.8 | |
| 20260504021017 | 79 | 0.0 | 0.0 | 0.00 | 0.00 | 0.00 | 34 | 1007.8 | |
| 20260504020017 | 80 | 0.0 | 1.0 | 0.00 | 0.00 | 0.00 | 30 | 1008.0 | |
| 20260504015017 | 80 | 0.0 | 1.0 | 0.00 | 0.00 | 0.00 | 29 | 1008.1 | |
| 20260504014017 | 81 | 158 | 1.0 | 3.0 | 0.00 | 0.00 | 0.00 | 26 | 1008.0 |
| 20260504013017 | 81 | 0.0 | 2.0 | 0.00 | 0.00 | 0.00 | 28 | 1008.1 | |
| 20260504012017 | 81 | 270 | 1.0 | 2.0 | 0.00 | 0.00 | 0.00 | 27 | 1008.2 |
| 20260504011018 | 81 | 293 | 1.0 | 3.0 | 0.00 | 0.00 | 0.00 | 29 | 1008.4 |
| 20260504010058 | 81 | 0.0 | 1.0 | 0.00 | 0.00 | 0.00 | 28 | 1008.5 | |
| 20260504005037 | 81 | 203 | 1.0 | 3.0 | 0.00 | 0.00 | 0.00 | 27 | 1008.6 |
| 20260504004017 | 80 | 293 | 2.0 | 9.0 | 0.00 | 0.00 | 0.00 | 27 | 1008.6 |
| 20260504003017 | 80 | 293 | 1.0 | 5.0 | 0.00 | 0.00 | 0.00 | 30 | 1008.7 |
| 20260504002017 | 80 | 293 | 1.0 | 7.0 | 0.00 | 0.00 | 0.00 | 28 | 1008.8 |
| 20260504001017 | 80 | 270 | 2.0 | 6.0 | 0.00 | 0.00 | 0.00 | 27 | 1009.1 |
| 20260504000017 | 80 | 293 | 1.0 | 8.0 | 0.00 | 0.00 | 0.00 | 25 | 1009.1 |
| 20260503235017 | 80 | 135 | 2.0 | 6.0 | 0.00 | 0.00 | 0.00 | 27 | 1009.2 |
| 20260503234016 | 80 | 113 | 1.0 | 4.0 | 0.00 | 0.00 | 0.00 | 30 | 1009.3 |
| 20260503233017 | 79 | 135 | 2.0 | 6.0 | 0.00 | 0.00 | 0.00 | 29 | 1009.5 |
| 20260503232017 | 79 | 315 | 2.0 | 7.0 | 0.00 | 0.00 | 0.00 | 29 | 1009.6 |
| 20260503231037 | 79 | 293 | 2.0 | 4.0 | 0.00 | 0.00 | 0.00 | 27 | 1009.7 |
| 20260503230117 | 79 | 270 | 2.0 | 4.0 | 0.00 | 0.00 | 0.00 | 28 | 1009.8 |
| 20260503225017 | 79 | 270 | 2.0 | 4.0 | 0.00 | 0.00 | 0.00 | 28 | 1009.9 |
| 20260503224017 | 79 | 270 | 2.0 | 7.0 | 0.00 | 0.00 | 0.00 | 29 | 1010.2 |
| 20260503223017 | 78 | 293 | 3.0 | 12.0 | 0.00 | 0.00 | 0.00 | 28 | 1010.3 |
| 20260503222017 | 79 | 293 | 1.0 | 4.0 | 0.00 | 0.00 | 0.00 | 26 | 1010.3 |
| 20260503221017 | 78 | 270 | 2.0 | 5.0 | 0.00 | 0.00 | 0.00 | 25 | 1010.5 |
| 20260503220037 | 78 | 293 | 3.0 | 7.0 | 0.00 | 0.00 | 0.00 | 25 | 1010.6 |
| 20260503215016 | 79 | 315 | 1.0 | 4.0 | 0.00 | 0.00 | 0.00 | 27 | 1010.9 |
| 20260503214017 | 78 | 270 | 2.0 | 8.0 | 0.00 | 0.00 | 0.00 | 27 | 1011.0 |
| 20260503213016 | 80 | 293 | 1.0 | 4.0 | 0.00 | 0.00 | 0.00 | 26 | 1011.3 |
| 20260503212037 | 79 | 135 | 1.0 | 3.0 | 0.00 | 0.00 | 0.00 | 26 | 1011.3 |
| 20260503211016 | 78 | 158 | 1.0 | 4.0 | 0.00 | 0.00 | 0.00 | 26 | 1011.4 |
| 20260503210016 | 77 | 293 | 3.0 | 6.0 | 0.00 | 0.00 | 0.00 | 22 | 1011.5 |
| 20260503205037 | 77 | 203 | 1.0 | 4.0 | 0.00 | 0.00 | 0.00 | 29 | 1011.8 |
| 20260503204017 | 77 | 293 | 2.0 | 8.0 | 0.00 | 0.00 | 0.00 | 28 | 1011.9 |
| 20260503203037 | 76 | 270 | 3.0 | 8.0 | 0.00 | 0.00 | 0.00 | 27 | 1012.1 |
| 20260503202016 | 76 | 270 | 3.0 | 6.0 | 0.00 | 0.00 | 0.00 | 28 | 1012.3 |
| 20260503201016 | 76 | 293 | 3.0 | 6.0 | 0.00 | 0.00 | 0.00 | 30 | 1012.3 |
| 20260503200016 | 75 | 270 | 1.0 | 5.0 | 0.00 | 0.00 | 0.00 | 28 | 1012.6 |
| 20260503195017 | 75 | 270 | 2.0 | 4.0 | 0.00 | 0.00 | 0.00 | 29 | 1012.6 |
| 20260503194017 | 75 | 248 | 1.0 | 4.0 | 0.00 | 0.00 | 0.00 | 31 | 1012.8 |
| 20260503193016 | 74 | 270 | 2.0 | 5.0 | 0.00 | 0.00 | 0.00 | 33 | 1013.1 |
| 20260503192016 | 75 | 270 | 2.0 | 6.0 | 0.00 | 0.00 | 0.00 | 30 | 1013.2 |
| 20260503191017 | 74 | 270 | 1.0 | 4.0 | 0.00 | 0.00 | 0.00 | 29 | 1013.3 |
| 20260503190016 | 74 | 135 | 1.0 | 4.0 | 0.00 | 0.00 | 0.00 | 33 | 1013.5 |